Overseas Houston — WWAA — position and weather

sailwx.info

Track history (hours):
 
Tides and Currents Weather Stations Pressure Air Temp Water Temp Dewpoint Dewpoint Depression Visibility Wind Speed Wind Dir Waves Ship Positions

Overseas Houston

Owner: ASC Leasing I, Inc., Philadelphia, PA. More information available from US FCC via Universal Licensing System and Coast Guard Vessel Documentation Center.

Last reported at 2014-Oct-23 10:32 UTC. Time now 2014-Oct-24 11:23 UTC.
Position N 27°36' W 083°12'.

Type: Tanker. MMSI: 367109000.

Date/timePositionNaut miles runAvg speedWind from/ knotsBaromVisibWave heightAir tempDewpointWater temp
2014-Oct-23 10:32N 27°36' W 083°12'1515.2
2014-Oct-23 09:33N 27°36' W 082°55'1414.0
2014-Oct-23 08:33N 27°37' W 082°39'1111.2
2014-Oct-23 07:33N 27°47' W 082°33'4 4.4
2014-Oct-23 06:34N 27°52' W 082°33'0 0.0
2014-Oct-23 05:33N 27°52' W 082°33'0 0.0
2014-Oct-23 04:33N 27°52' W 082°33'0 0.0
2014-Oct-23 03:33N 27°52' W 082°33'0 0.0
2014-Oct-23 02:33N 27°52' W 082°33'0 0.0
2014-Oct-23 01:33N 27°52' W 082°33'0 0.0
2014-Oct-23 00:33N 27°52' W 082°33'0 0.0
2014-Oct-22 23:33N 27°52' W 082°33'0 0.0
2014-Oct-22 22:33N 27°52' W 082°33'0 0.0
2014-Oct-22 21:33N 27°52' W 082°33'0 0.0
2014-Oct-22 20:33N 27°52' W 082°33'0 0.0
2014-Oct-22 19:33N 27°52' W 082°33'0 0.0
2014-Oct-22 18:33N 27°52' W 082°33'0 0.0
2014-Oct-22 17:33N 27°52' W 082°33'0 0.0
2014-Oct-22 16:33N 27°52' W 082°33'0 0.0
2014-Oct-22 15:33N 27°52' W 082°33'0 0.0
2014-Oct-22 14:33N 27°52' W 082°33'0 0.0
2014-Oct-22 13:33N 27°52' W 082°33'0 0.0
2014-Oct-22 12:33N 27°52' W 082°33'0 0.0
2014-Oct-22 11:33N 27°52' W 082°33'0 0.0
2014-Oct-22 10:33N 27°52' W 082°33'0 0.0
2014-Oct-22 09:33N 27°52' W 082°33'0 0.0
2014-Oct-22 08:33N 27°52' W 082°33'0 0.0
2014-Oct-22 07:33N 27°52' W 082°33'0 0.0
2014-Oct-22 06:33N 27°52' W 082°33'0 0.0
2014-Oct-22 05:33N 27°52' W 082°33'0 0.0
2014-Oct-22 04:33N 27°52' W 082°33'0 0.0
2014-Oct-22 03:33N 27°52' W 082°33'0 0.0
2014-Oct-22 02:33N 27°52' W 082°33'0 0.0
2014-Oct-22 01:33N 27°52' W 082°33'2 2.5
2014-Oct-22 00:33N 27°49' W 082°34'7 6.5
2014-Oct-21 23:33N 27°49' W 082°27'6 6.2
2014-Oct-21 22:32N 27°55' W 082°26'0 0.0
2014-Oct-21 21:32N 27°55' W 082°26'0 0.0
2014-Oct-21 20:32N 27°55' W 082°26'0 0.0
2014-Oct-21 19:32N 27°55' W 082°26'0 0.0
2014-Oct-21 18:32N 27°55' W 082°26'0 0.0
2014-Oct-21 17:32N 27°55' W 082°26'0 0.0
2014-Oct-21 16:32N 27°55' W 082°26'0 0.0
2014-Oct-21 15:32N 27°55' W 082°26'0 0.0
2014-Oct-21 14:32N 27°55' W 082°26'0 0.0
2014-Oct-21 13:32N 27°55' W 082°26'0 0.0
2014-Oct-21 12:32N 27°55' W 082°26'0 0.0
2014-Oct-21 11:32N 27°55' W 082°26'0 0.0
2014-Oct-21 10:32N 27°55' W 082°26'0 0.0
2014-Oct-21 09:32N 27°55' W 082°26'0 0.0
2014-Oct-21 08:32N 27°55' W 082°26'0 0.0
2014-Oct-21 07:32N 27°55' W 082°26'0 0.0
2014-Oct-21 06:33N 27°55' W 082°26'1 1.5
2014-Oct-21 05:33N 27°54' W 082°26'0 0.3
2014-Oct-21 04:31N 27°54' W 082°26'1 0.8
2014-Oct-21 03:33N 27°55' W 082°27'0 0.0
2014-Oct-21 02:33N 27°55' W 082°27'0 0.0
2014-Oct-21 01:33N 27°55' W 082°27'0 0.0
2014-Oct-21 00:33N 27°55' W 082°27'0 0.0
2014-Oct-20 23:30N 27°55' W 082°27'0 0.0
2014-Oct-20 22:33N 27°55' W 082°27'0 0.0
2014-Oct-20 21:33N 27°55' W 082°27'0 0.0
2014-Oct-20 20:33N 27°55' W 082°27'0 0.0
2014-Oct-20 19:33N 27°55' W 082°27'0 0.0
2014-Oct-20 18:33N 27°55' W 082°27'0 0.0
2014-Oct-20 17:33N 27°55' W 082°27'0 0.0
2014-Oct-20 16:33N 27°55' W 082°27'0 0.0
2014-Oct-20 15:33N 27°55' W 082°27'0 0.0
2014-Oct-20 14:33N 27°55' W 082°27'1 1.3
2014-Oct-20 13:33N 27°54' W 082°26'10 9.7
2014-Oct-20 12:33N 27°45' W 082°32'1111.3
2014-Oct-20 11:33N 27°37' W 082°40'1211.7
2014-Oct-20 10:33N 27°36' W 082°54'9 8.9
2014-Oct-20 09:33N 27°36' W 083°04'  
2014-Oct-17 05:33N 29°60' W 090°24'6 5.9
2014-Oct-17 04:31N 29°57' W 090°18'  
2014-Oct-14 23:03N 27°36' W 083°10'714.9
2014-Oct-14 22:33N 27°36' W 083°02'1312.7
2014-Oct-14 21:33N 27°37' W 082°48'1111.4
2014-Oct-14 20:33N 27°40' W 082°36'9 8.9
2014-Oct-14 19:33N 27°49' W 082°34'3 2.7
2014-Oct-14 18:32N 27°52' W 082°33'0 0.0
2014-Oct-14 17:32N 27°52' W 082°33'0 0.0
2014-Oct-14 16:32N 27°52' W 082°33'0 0.0
2014-Oct-14 15:32N 27°52' W 082°33'0 0.0
2014-Oct-14 14:32N 27°52' W 082°33'0 0.0
2014-Oct-14 13:32N 27°52' W 082°33'0 0.0
2014-Oct-14 12:32N 27°52' W 082°33'0 0.0
2014-Oct-14 11:32N 27°52' W 082°33'0 0.0
2014-Oct-14 10:29N 27°52' W 082°33'0 0.0
2014-Oct-14 09:32N 27°52' W 082°33'0 0.0
2014-Oct-14 08:32N 27°52' W 082°33'0 0.0
2014-Oct-14 07:32N 27°52' W 082°33'0 0.0
2014-Oct-14 06:32N 27°52' W 082°33'0 0.0
2014-Oct-14 05:32N 27°52' W 082°33'0 0.0
2014-Oct-14 04:32N 27°52' W 082°33'0 0.0
2014-Oct-14 03:32N 27°52' W 082°33'0 0.0
2014-Oct-14 02:32N 27°52' W 082°33'0 0.0
2014-Oct-14 01:31N 27°52' W 082°33'0 0.0
2014-Oct-14 00:31N 27°52' W 082°33'0 0.0
2014-Oct-13 23:31N 27°52' W 082°33'0 0.0
2014-Oct-13 22:31N 27°52' W 082°33'0 0.0
2014-Oct-13 21:31N 27°52' W 082°33'0 0.0
2014-Oct-13 20:31N 27°52' W 082°33'0 0.0
2014-Oct-13 19:31N 27°52' W 082°33'0 0.3
2014-Oct-13 18:33N 27°52' W 082°33'5 4.8
2014-Oct-13 17:34N 27°47' W 082°32'9 8.8
2014-Oct-13 16:33N 27°55' W 082°27'0 0.4
2014-Oct-13 15:31N 27°55' W 082°27'0 0.0
2014-Oct-13 14:31N 27°55' W 082°27'0 0.0
2014-Oct-13 13:31N 27°55' W 082°27'0 0.0
2014-Oct-13 12:31N 27°55' W 082°27'0 0.0
2014-Oct-13 11:28N 27°55' W 082°27'  
Track history (hours):
 
Tides and Currents Weather Stations Pressure Air Temp Water Temp Dewpoint Dewpoint Depression Visibility Wind Speed Wind Dir Waves Ship Positions

Overseas Houston

Owner: ASC Leasing I, Inc., Philadelphia, PA. More information available from US FCC via Universal Licensing System and Coast Guard Vessel Documentation Center.

Last reported at 2014-Oct-23 10:32 UTC. Time now 2014-Oct-24 11:23 UTC.
Position N 27°36' W 083°12'.

Type: Tanker. MMSI: 367109000.

Date/timePositionNaut miles runAvg speedWind from/ knotsBaromVisibWave heightAir tempDewpointWater temp
2014-Oct-23 10:32N 27°36' W 083°12'1515.2
2014-Oct-23 09:33N 27°36' W 082°55'1414.0
2014-Oct-23 08:33N 27°37' W 082°39'1111.2
2014-Oct-23 07:33N 27°47' W 082°33'4 4.4
2014-Oct-23 06:34N 27°52' W 082°33'0 0.0
2014-Oct-23 05:33N 27°52' W 082°33'0 0.0
2014-Oct-23 04:33N 27°52' W 082°33'0 0.0
2014-Oct-23 03:33N 27°52' W 082°33'0 0.0
2014-Oct-23 02:33N 27°52' W 082°33'0 0.0
2014-Oct-23 01:33N 27°52' W 082°33'0 0.0
2014-Oct-23 00:33N 27°52' W 082°33'0 0.0
2014-Oct-22 23:33N 27°52' W 082°33'0 0.0
2014-Oct-22 22:33N 27°52' W 082°33'0 0.0
2014-Oct-22 21:33N 27°52' W 082°33'0 0.0
2014-Oct-22 20:33N 27°52' W 082°33'0 0.0
2014-Oct-22 19:33N 27°52' W 082°33'0 0.0
2014-Oct-22 18:33N 27°52' W 082°33'0 0.0
2014-Oct-22 17:33N 27°52' W 082°33'0 0.0
2014-Oct-22 16:33N 27°52' W 082°33'0 0.0
2014-Oct-22 15:33N 27°52' W 082°33'0 0.0
2014-Oct-22 14:33N 27°52' W 082°33'0 0.0
2014-Oct-22 13:33N 27°52' W 082°33'0 0.0
2014-Oct-22 12:33N 27°52' W 082°33'0 0.0
2014-Oct-22 11:33N 27°52' W 082°33'0 0.0
2014-Oct-22 10:33N 27°52' W 082°33'0 0.0
2014-Oct-22 09:33N 27°52' W 082°33'0 0.0
2014-Oct-22 08:33N 27°52' W 082°33'0 0.0
2014-Oct-22 07:33N 27°52' W 082°33'0 0.0
2014-Oct-22 06:33N 27°52' W 082°33'0 0.0
2014-Oct-22 05:33N 27°52' W 082°33'0 0.0
2014-Oct-22 04:33N 27°52' W 082°33'0 0.0
2014-Oct-22 03:33N 27°52' W 082°33'0 0.0
2014-Oct-22 02:33N 27°52' W 082°33'0 0.0
2014-Oct-22 01:33N 27°52' W 082°33'2 2.5
2014-Oct-22 00:33N 27°49' W 082°34'7 6.5
2014-Oct-21 23:33N 27°49' W 082°27'6 6.2
2014-Oct-21 22:32N 27°55' W 082°26'0 0.0
2014-Oct-21 21:32N 27°55' W 082°26'0 0.0
2014-Oct-21 20:32N 27°55' W 082°26'0 0.0
2014-Oct-21 19:32N 27°55' W 082°26'0 0.0
2014-Oct-21 18:32N 27°55' W 082°26'0 0.0
2014-Oct-21 17:32N 27°55' W 082°26'0 0.0
2014-Oct-21 16:32N 27°55' W 082°26'0 0.0
2014-Oct-21 15:32N 27°55' W 082°26'0 0.0
2014-Oct-21 14:32N 27°55' W 082°26'0 0.0
2014-Oct-21 13:32N 27°55' W 082°26'0 0.0
2014-Oct-21 12:32N 27°55' W 082°26'0 0.0
2014-Oct-21 11:32N 27°55' W 082°26'0 0.0
2014-Oct-21 10:32N 27°55' W 082°26'0 0.0
2014-Oct-21 09:32N 27°55' W 082°26'0 0.0
2014-Oct-21 08:32N 27°55' W 082°26'0 0.0
2014-Oct-21 07:32N 27°55' W 082°26'0 0.0
2014-Oct-21 06:33N 27°55' W 082°26'1 1.5
2014-Oct-21 05:33N 27°54' W 082°26'0 0.3
2014-Oct-21 04:31N 27°54' W 082°26'1 0.8
2014-Oct-21 03:33N 27°55' W 082°27'0 0.0
2014-Oct-21 02:33N 27°55' W 082°27'0 0.0
2014-Oct-21 01:33N 27°55' W 082°27'0 0.0
2014-Oct-21 00:33N 27°55' W 082°27'0 0.0
2014-Oct-20 23:30N 27°55' W 082°27'0 0.0
2014-Oct-20 22:33N 27°55' W 082°27'0 0.0
2014-Oct-20 21:33N 27°55' W 082°27'0 0.0
2014-Oct-20 20:33N 27°55' W 082°27'0 0.0
2014-Oct-20 19:33N 27°55' W 082°27'0 0.0
2014-Oct-20 18:33N 27°55' W 082°27'0 0.0
2014-Oct-20 17:33N 27°55' W 082°27'0 0.0
2014-Oct-20 16:33N 27°55' W 082°27'0 0.0
2014-Oct-20 15:33N 27°55' W 082°27'0 0.0
2014-Oct-20 14:33N 27°55' W 082°27'1 1.3
2014-Oct-20 13:33N 27°54' W 082°26'10 9.7
2014-Oct-20 12:33N 27°45' W 082°32'1111.3
2014-Oct-20 11:33N 27°37' W 082°40'1211.7
2014-Oct-20 10:33N 27°36' W 082°54'9 8.9
2014-Oct-20 09:33N 27°36' W 083°04'  
2014-Oct-17 05:33N 29°60' W 090°24'6 5.9
2014-Oct-17 04:31N 29°57' W 090°18'  
2014-Oct-14 23:03N 27°36' W 083°10'714.9
2014-Oct-14 22:33N 27°36' W 083°02'1312.7
2014-Oct-14 21:33N 27°37' W 082°48'1111.4
2014-Oct-14 20:33N 27°40' W 082°36'9 8.9
2014-Oct-14 19:33N 27°49' W 082°34'3 2.7
2014-Oct-14 18:32N 27°52' W 082°33'0 0.0
2014-Oct-14 17:32N 27°52' W 082°33'0 0.0
2014-Oct-14 16:32N 27°52' W 082°33'0 0.0
2014-Oct-14 15:32N 27°52' W 082°33'0 0.0
2014-Oct-14 14:32N 27°52' W 082°33'0 0.0
2014-Oct-14 13:32N 27°52' W 082°33'0 0.0
2014-Oct-14 12:32N 27°52' W 082°33'0 0.0
2014-Oct-14 11:32N 27°52' W 082°33'0 0.0
2014-Oct-14 10:29N 27°52' W 082°33'0 0.0
2014-Oct-14 09:32N 27°52' W 082°33'0 0.0
2014-Oct-14 08:32N 27°52' W 082°33'0 0.0
2014-Oct-14 07:32N 27°52' W 082°33'0 0.0
2014-Oct-14 06:32N 27°52' W 082°33'0 0.0
2014-Oct-14 05:32N 27°52' W 082°33'0 0.0
2014-Oct-14 04:32N 27°52' W 082°33'0 0.0
2014-Oct-14 03:32N 27°52' W 082°33'0 0.0
2014-Oct-14 02:32N 27°52' W 082°33'0 0.0
2014-Oct-14 01:31N 27°52' W 082°33'0 0.0
2014-Oct-14 00:31N 27°52' W 082°33'0 0.0
2014-Oct-13 23:31N 27°52' W 082°33'0 0.0
2014-Oct-13 22:31N 27°52' W 082°33'0 0.0
2014-Oct-13 21:31N 27°52' W 082°33'0 0.0
2014-Oct-13 20:31N 27°52' W 082°33'0 0.0
2014-Oct-13 19:31N 27°52' W 082°33'0 0.3
2014-Oct-13 18:33N 27°52' W 082°33'5 4.8
2014-Oct-13 17:34N 27°47' W 082°32'9 8.8
2014-Oct-13 16:33N 27°55' W 082°27'0 0.4
2014-Oct-13 15:31N 27°55' W 082°27'0 0.0
2014-Oct-13 14:31N 27°55' W 082°27'0 0.0
2014-Oct-13 13:31N 27°55' W 082°27'0 0.0
2014-Oct-13 12:31N 27°55' W 082°27'0 0.0
2014-Oct-13 11:28N 27°55' W 082°27'  

Dump ship's entire track history